{"data":{"norad_id":52382,"epoch":"2026-05-25T04:23:07.812384Z","epoch_age_seconds":69913,"freshness":"FRESH","line1":"1 52382U 22045BD  26145.18272931  .00182263  00000+0  70376-2 0  9990","line2":"2 52382  53.2113 202.3779 0000975 100.3542 259.7567 15.25042587227521","mean_motion":15.25042587,"eccentricity":9.75e-5,"inclination_deg":53.2113,"raan_deg":202.3779,"arg_perigee_deg":100.3542,"mean_anomaly_deg":259.7567,"bstar":0.0070376,"rev_number":22752,"period_min":94.423592644236,"perigee_km":489.9878486975,"apogee_km":491.32726363595,"semimajor_km":6868.7945561667,"source":"CELESTRAK","updated_at":"2026-05-25T13:38:17.123086Z"}}